Location: *
(2.7833°S, 66.0500°W)
Time: 23:45:43
(UTC+00:00)

Daily predictions for brighter satellites

Satellite Brightness Start Highest point End
(mag) Time Altitude Azimuth Time Altitude Azimuth Time Altitude Azimuth
BLOCK DM-SL R/B 3.7 22:28:08 10° W 22:32:57 71° N 22:40:48 10° E
GPS 2-12 Rocket1 3.1 22:35:27 10° WNW 22:40:00 64° NNE 22:44:27 10° ESE
deb Kosmos-1763 4.2 22:37:17 10° N 22:40:36 45° ENE 22:43:55 10° SSE
DMSP B5D2-2 4.3 22:36:53 10° NNE 22:41:56 50° ESE 22:47:01 10° S
Cosmos 1066 Rocket 4.4 22:39:32 10° N 22:44:52 75° W 22:50:19 10° S
Nadezhda 1 Rocket 4.3 22:39:59 10° N 22:46:01 73° W 22:52:10 10° S
[s.n.49173] 3.3 22:46:08 10° NNE 22:48:13 25° ENE 22:50:20 10° SE
CZ-4 R/B 3.1 22:47:26 10° ESE 22:48:54 12° E 22:50:21 10° ENE
NOSS 3-2 (C) 4.5 22:47:06 10° SSE 22:50:33 17° ESE 22:53:44 11° ENE
Cosmos 1975 3.7 22:48:16 10° SSW 22:52:10 53° W 22:56:01 10° N
IRIS 3.8 22:50:16 10° SW 22:52:33 65° NW 22:55:10 10° NE
Cosmos 2154 Rocket 4.4 22:48:04 10° SSE 22:53:55 40° E 22:59:46 10° NNE
CZ-4B R/B 1.6 22:51:24 10° NNE 22:54:26 41° ESE 22:57:32 10° S
Cosmos 1842 4.2 22:52:23 10° NNE 22:55:38 26° E 22:58:55 10° SE
Cosmos 1782 Rocket 4.5 22:56:22 10° SSE 23:00:08 27° E 23:03:53 10° NE
CZ-2D R/B 3.9 22:58:59 10° S 23:02:43 57° WSW 23:06:26 10° NNW
Gbstr 26 Del rocket 3.9 22:57:22 10° SW 23:03:05 88° SE 23:10:10 10° NE
[s.n.49181] 2.2 23:02:13 10° NNW 23:04:46 71° ENE 23:07:20 10° SSE
[s.n.49180] 2.2 23:02:31 10° NNW 23:05:04 73° ENE 23:07:39 10° SSE
Cosmos 1400 Rocket 2.9 23:01:13 10° S 23:05:21 89° W 23:09:28 10° N
[s.n.49176] 2.2 23:02:48 10° NNW 23:05:21 74° ENE 23:07:56 10° SSE
Cosmos 1833 Rocket 2.9 23:00:00 10° N 23:05:22 48° ENE 23:10:46 10° SSE
[s.n.49178] 2.2 23:03:05 10° NNW 23:05:38 75° ENE 23:08:13 10° SSE
[s.n.49179] 2.2 23:03:22 10° NNW 23:05:56 77° ENE 23:08:31 10° SSE
[s.n.49177] 2.2 23:03:42 10° NNW 23:06:15 78° ENE 23:08:51 10° SSE
Cosmos 1570 Rocket 4.1 23:01:24 10° N 23:06:30 54° ENE 23:11:36 10° SSE
[s.n.49175] 2.2 23:03:58 10° NNW 23:06:32 80° ENE 23:09:08 10° SSE
[s.n.49172] 2.2 23:04:17 10° NNW 23:06:51 81° ENE 23:09:27 10° SSE
[s.n.49170] 2.3 23:04:34 10° NNW 23:07:08 83° ENE 23:09:44 10° SSE
[s.n.49174] 2.3 23:04:52 10° NNW 23:07:26 84° ENE 23:10:02 10° SSE
Cosmos 841 Rocket 3.9 23:02:36 10° NNW 23:07:43 68° WSW 23:12:50 10° S
[s.n.49168] 2.3 23:05:27 10° NNW 23:08:02 87° ENE 23:10:38 10° SSE
[s.n.49171] 2.3 23:05:46 10° NNW 23:08:21 89° E 23:10:57 10° SSE
[s.n.49169] 2.3 23:06:06 10° NNW 23:08:40 89° W 23:11:17 10° SSE
[s.n.49164] 2.3 23:06:23 10° NNW 23:08:57 88° WSW 23:11:33 10° SSE
[s.n.49166] 2.4 23:06:42 10° NNW 23:09:16 86° W 23:11:53 10° SSE
[s.n.49167] 2.4 23:07:00 10° NNW 23:09:34 85° WSW 23:12:11 10° SSE
[s.n.49165] 2.4 23:07:18 10° NNW 23:09:53 83° WSW 23:12:29 10° SSE
[s.n.49162] 2.4 23:07:37 10° NNW 23:10:11 82° WSW 23:12:48 10° SSE
[s.n.49163] 2.4 23:07:55 10° NNW 23:10:29 80° WSW 23:13:06 10° SSE
USA 281 4.1 23:05:42 10° ENE 23:10:43 25° ESE 23:15:53 10° SSE
[s.n.49160] 2.5 23:08:12 10° NNW 23:10:47 79° WSW 23:13:24 10° SSE
CENTAUR R/B 2.3 23:06:15 10° S 23:10:58 42° ESE 23:15:53 10° NE
[s.n.49158] 2.5 23:08:32 10° NNW 23:11:07 77° WSW 23:13:43 10° SSE
[s.n.49161] 2.5 23:08:49 10° NNW 23:11:25 76° WSW 23:14:01 10° SSE
[s.n.49156] 2.6 23:09:09 10° NNW 23:11:44 74° WSW 23:14:20 10° SSE
[s.n.49159] 2.6 23:09:27 10° NNW 23:12:01 73° WSW 23:14:38 10° SSE
[s.n.49157] 2.6 23:09:45 10° NNW 23:12:21 72° WSW 23:14:57 10° SSE
[s.n.49154] 2.7 23:10:05 10° NNW 23:12:40 70° WSW 23:15:17 10° SSE
[s.n.49152] 2.7 23:10:24 10° NNW 23:12:58 69° WSW 23:15:35 10° S
[s.n.49155] 2.7 23:10:43 10° NNW 23:13:18 67° WSW 23:15:54 10° S
[s.n.49153] 2.8 23:11:02 10° NNW 23:13:36 66° WSW 23:16:12 10° S
ARGOS 3.2 23:08:28 10° SSE 23:13:41 53° ENE 23:18:52 10° N
Cosmos 2221 Rocket 3.6 23:09:34 10° N 23:13:52 55° E 23:18:12 10° SSE
[s.n.49150] 2.8 23:11:21 10° NNW 23:13:55 65° WSW 23:16:31 10° S
[s.n.49151] 2.8 23:11:39 10° NNW 23:14:14 64° WSW 23:16:50 10° S
[s.n.49148] 2.9 23:11:59 10° NNW 23:14:33 62° WSW 23:17:10 10° S
[s.n.49149] 2.9 23:12:18 10° NNW 23:14:52 61° WSW 23:17:29 10° S
[s.n.49145] 3.0 23:12:37 10° NNW 23:15:12 60° WSW 23:17:47 10° S
[s.n.49146] 3.0 23:12:57 10° NNW 23:15:31 59° WSW 23:18:07 10° S
[s.n.49144] 3.1 23:13:16 10° NNW 23:15:50 58° WSW 23:18:26 10° S
[s.n.49147] 3.1 23:13:36 10° NNW 23:16:09 56° WSW 23:18:45 10° S
[s.n.49143] 3.1 23:13:54 10° NNW 23:16:29 55° WSW 23:19:04 10° S
[s.n.49142] 3.2 23:14:14 10° NNW 23:16:48 54° WSW 23:19:23 10° S
[s.n.49140] 3.2 23:14:34 10° NNW 23:17:07 53° WSW 23:19:42 10° S
[s.n.49141] 3.3 23:14:54 10° NNW 23:17:27 52° WSW 23:20:02 10° S
[s.n.49138] 3.3 23:15:13 10° NNW 23:17:46 51° WSW 23:20:21 10° S
[s.n.49139] 3.4 23:15:33 10° NNW 23:18:06 50° WSW 23:20:40 10° S
[s.n.49134] 3.4 23:15:52 10° NNW 23:18:25 49° WSW 23:20:59 10° S
[s.n.49137] 3.4 23:16:12 10° NNW 23:18:46 48° WSW 23:21:20 10° S
[s.n.49135] 3.5 23:16:32 10° NNW 23:19:05 47° WSW 23:21:39 10° S
[s.n.49136] 3.5 23:16:53 10° NNW 23:19:25 46° WSW 23:21:59 10° S
Cosmos 1777 Rocket 4.4 23:14:25 10° SSW 23:19:41 67° WNW 23:24:53 10° N
[s.n.49133] 3.6 23:17:13 10° NNW 23:19:45 45° WSW 23:22:18 10° S
Cosmos 1805 3.8 23:16:29 10° SSE 23:20:01 33° E 23:21:09 28° ENE
[s.n.49131] 3.6 23:17:33 10° NNW 23:20:05 45° WSW 23:22:38 10° S
[s.n.49132] 3.7 23:17:53 10° NNW 23:20:25 44° WSW 23:22:58 10° S
USA 238 DEB 3.6 23:14:33 10° S 23:20:49 54° ESE 23:27:00 10° NE
USA 238 3.6 23:14:42 10° S 23:20:56 53° ESE 23:27:05 10° NE
Centaur D AC-29 1.4 23:14:42 10° WNW 23:21:21 69° SSW 23:23:21 23° SE
Cosmos 1814 Rocket 4.0 23:16:44 10° NNW 23:21:59 86° W 23:27:12 10° S
H-2A R/B 4.5 23:21:44 10° NNW 23:25:00 23° WNW 23:28:15 10° SW
Cosmos 2369 Rocket 3.6 23:23:40 10° SW 23:28:58 40° WNW 23:34:14 10° N
ARIANE 5 R/B 2.9 23:13:19 10° W 23:29:43 62° S 23:31:28 32° ESE
Cosmos 921 Rocket 2.8 23:25:48 10° N 23:29:54 61° E 23:33:51 11° SSE
Cosmos 2082 Rocket 2.8 23:25:10 10° NNE 23:30:11 33° ENE 23:30:46 32° E
NOSS 3-2 (A) 3.3 23:27:09 10° SSW 23:32:24 66° WNW 23:37:37 10° NNE
COSMOS 2406 3.1 23:28:47 10° NNW 23:34:30 82° ENE 23:40:12 10° SSE
Meteor 1-15 Rocket 4.4 23:29:58 10° SSE 23:35:20 46° E 23:40:37 10° NNE
H-2A R/B 2.6 23:31:59 10° S 23:36:11 78° WSW 23:40:30 10° NNW
Cosmos 2341 Rocket 4.1 23:35:10 10° SSE 23:41:10 49° E 23:47:10 10° NNE
Okean O Rocket 3.7 23:41:44 10° SSW 23:45:32 28° WSW 23:49:18 10° NW
Cosmos 2208 Rocket 4.4 23:40:36 10° NNW 23:45:54 68° WSW 23:51:18 10° S
